Miscellaneous Local Product
Issued by NWS North Platte, NE

Home | Current Version | Previous Version | Graphics & Text | Print | Product List | Glossary On
Versions: 1 2 3 4 5 6 7 8 9 10 11 12 13 14 15 16 17 18 19 20 21 22 23 24 25 26 27 28 29 30 31 32 33 34 35 36 37 38 39 40 41 42 43 44 45 46 47 48 49 50
000
AXUS43 KLBF 192210
MISLBF


WESTERN AND NORTH CENTRAL NEBRASKA HOURLY WEATHER ROUNDUP
NATIONAL WEATHER SERVICE NORTH PLATTE NE
400 PM CST SUN FEB 19 2017

NOTE: "FAIR" INDICATES FEW OR NO CLOUDS BELOW 12,000 FEET WITH NO
SIGNIFICANT WEATHER AND/OR OBSTRUCTIONS TO VISIBILITY.

NOTE: STATIONS NOT REPORTING VARIABLES SUCH AS SKY/WEATHER OR
PRESSURE ARE PROVIDED BY RAWS AND APRS NETWORKS AND ARE NOT UNDER
NATIONAL WEATHER SERVICE QUALITY CONTROL.

...OBSERVATIONS IN AND NEAR THE EASTERN PANHANDLE OF NEBRASKA...

CITY           SKY/WX    TMP DP  RH WIND       PRES   REMARKS
PINE RIDGE     CLOUDY    59  35  40 S10       29.55S
CHADRON        CLOUDY    65  30  27 SW8       29.54R
ALLIANCE       CLOUDY    58  31  35 SE15      29.58S
SIDNEY         CLOUDY    63  32  31 SE20      29.59F
CRESCENT LAKE    N/A     59  31  35 S6G14       N/A
$$

...OBSERVATIONS IN NORTHERN NEBRASKA AND FAR SOUTHERN SOUTH DAKOTA...

CITY           SKY/WX    TMP DP  RH WIND       PRES   REMARKS
WINNER         FAIR      72  39  30 S20G26    29.55S
VALENTINE      MOSUNNY   67  35  30 S23G30    29.59R
THEDFORD       CLOUDY    64  41  43 S15G26    29.65S
AINSWORTH      MOSUNNY   67  42  41 S21G28    29.61S
O`NEILL        CLOUDY    69  45  41 S15       29.65S
ORD            SUNNY     73  40  30 S17G25    29.67S
BROKEN BOW     MOSUNNY   69  44  40 S14G24    29.67R
VALENTINE NWR    N/A     65  37  35 S16G23      N/A
HALSEY           N/A     64  40  41 S13G23      N/A
CHAMBERS         N/A     69  44  41 S6          N/A
EWING            N/A     69  48  46 S9G18       N/A
$$

...OBSERVATIONS IN SOUTHWEST NEBRASKA AND FAR NORTHEAST COLORADO...

CITY           SKY/WX    TMP DP  RH WIND       PRES   REMARKS
HOLYOKE        FAIR      64  36  34 S16G23    29.62S
IMPERIAL       CLOUDY    68  40  35 S22G32    29.62F
OGALLALA       CLOUDY    62  40  45 E9        29.62F
NORTH PLATTE   CLOUDY    66  43  43 S9        29.64F
MCCOOK         MOSUNNY   75  45  34 S23G35    29.64F
LEXINGTON      MOSUNNY   70  43  37 S18       29.68S
STAPLETON        N/A     63  45  51 CALM        N/A
GOTHENBURG       N/A     69  42  38 S16         N/A
CALLAWAY         N/A     64  46  52 S13         N/A
$$

...OBSERVATIONS IN CENTRAL LINCOLN COUNTY AREA...

CITY           SKY/WX    TMP DP  RH WIND       PRES   REMARKS
N.P. AIRPORT   CLOUDY    66  43  43 S9        29.64F
N.P. DOWNTOWN    N/A     64  46  52 SE5G14      N/A
N.P. SOUTHEAST   N/A     64  45  50 S8G17       N/A
N.P. HILLCREST   N/A     63  46  54 SE7         N/A
$$

...SOME OBSERVATIONS FROM AROUND THE REGION...

CITY           SKY/WX    TMP DP  RH WIND       PRES   REMARKS
LARAMIE        CLOUDY    49  22  34 NW12      29.63S
CHEYENNE       CLOUDY    56  23  27 SE8       29.60F
DENVER         CLOUDY    62  26  25 S26       29.56R
AKRON          CLOUDY    64  30  27 S29G38    29.58F
SCOTTSBLUFF    CLOUDY    59  33  37 E9        29.57F
RAPID CITY     CLOUDY    69  32  25 SW20      29.47F
BISMARCK       CLOUDY    40  35  83 SE10      29.50S WCI  33
PIERRE         CLOUDY    67  38  34 S13       29.49S
SIOUX FALLS    CLOUDY    62  51  67 S21G30    29.70S
OMAHA          CLOUDY    71  50  47 S18       29.79F
GRAND ISLAND   MOSUNNY   69  49  48 S23       29.73R
KANSAS CITY    PTSUNNY   74  54  49 S16       29.88F
WICHITA        CLOUDY    62  55  77 S13       29.85S
OKLAHOMA CITY  PTSUNNY   71  60  68 SE22      29.84R
DALLAS         CLOUDY    75  66  73 SE18G28   29.83F
AMARILLO       MOSUNNY   66  35  31 SW23G31   29.82R
DODGE CITY     SUNNY     72  50  45 S25G31    29.72F
HAYS           SUNNY     71  50  47 S21G26    29.74R
GOODLAND       SUNNY     67  42  40 S22G30    29.66S
$$




USA.gov is the U.S. government's official web portal to all federal, state and local government web resources and services.